Regional Weather Roundup
Issued by NWS Kansas City/Pleasant Hill, MO

Home | Current Version | Previous Version | Text Only | Print | Product List | Glossary On
Versions: 1 2 3 4 5 6 7 8 9 10 11 12 13 14 15 16 17 18 19 20 21 22 23 24 25 26 27 28 29 30 31 32 33 34 35 36 37 38 39 40 41 42 43 44 45 46 47 48 49 50
000
ASUS43 KEAX 070104
RWREAX

WEATHER ROUNDUP FOR EASTERN KANSAS AND NORTHWEST MISSOURI
NATIONAL WEATHER SERVICE KANSAS CITY/PLEASANT HILL MO
800 PM CDT WED MAY 06 2015

KSZ040-057-103>105-MOZ028-029-037-043-070200-
...KANSAS CITY METROPOLITAN AREA...

CITY           SKY/WX    TMP DP  RH WIND       PRES   REMARKS
K.C. INTL      PTCLDY    72  60  66 SE15      29.84F
K.C. DOWNTOWN  CLEAR     76  57  51 SE12G23   29.84S
LEES SUMMIT    PTCLDY    74  57  55 SE13G20   29.87F
OLATHE - IXD   MOCLDY    73  58  59 SE18G25   29.84F
OLATHE - OJC   MOCLDY    73  59  61 SE15      29.84F
LAWRENCE       MOCLDY    72  60  66 SE14      29.81F

$$

MOZ001>008-011>017-020>025-030>033-038>040-044>046-053-054-070200-
...NORTHERN AND CENTRAL MISSOURI...

CITY           SKY/WX    TMP DP  RH WIND       PRES   REMARKS
ST. JOSEPH     MOCLDY    70  62  76 SE16      29.82F
MOSBY          CLEAR     72  63  73 SE6       29.87R
HARRISONVILLE  PTCLDY    75  57  53 SE10G16   29.90S
WHITEMAN AFB   MOCLDY    75  58  54 S13G23    29.91R
CLINTON        PTCLDY    75  57  53 SE12G18   29.92S
SEDALIA        PTCLDY    75  56  51 SE13      29.94R
WARSAW         NOT AVBL
CHILLICOTHE      N/A     69  62  78 SE3       29.91S
MOBERLY        CLEAR     77  54  44 SE8       29.96R
KIRKSVILLE     PTCLDY    69  61  75 SE7       29.95S

$$

MOZ041-047>049-056>058-063>065-088>090-097-070200-
...EASTERN AND SOUTHERN MISSOURI...

CITY           SKY/WX    TMP DP  RH WIND       PRES   REMARKS
ST. LOUIS INTL PTCLDY    82  50  32 S9        30.01S
SPIRIT OF STL  CLEAR     78  51  38 SE3       29.98S
COLUMBIA       CLOUDY    75  55  49 S10       29.96S
JEFFERSON CITY CLOUDY    78  54  43 SE8       29.95S
MEXICO         PTCLDY    77  64  65 SE8       29.96F
HANNIBAL       CLOUDY    77  54  44 SE3       29.97S
ROLLA          PTCLDY    74  53  48 S10       29.98S
LEBANON        CLEAR     73  54  49 S9        30.00R
OSAGE BEACH    CLEAR     75  54  46 S7        29.97R
SPRINGFIELD    PTCLDY    73  54  51 SE16      29.94F
BRANSON        MOCLDY    72  55  56 SE9       29.99S
NEVADA         PTCLDY    73  57  56 SE8       29.90S
JOPLIN         PTCLDY    74  55  51 SE15G23   29.89F
WEST PLAINS    MOCLDY    74  53  48 S7        30.02S

$$

IAZ060-094-KSZ022-034>040-054-083-096-NEZ052-066-093-070200-
...KANSAS...SOUTHEAST NEBRASKA AND IOWA...

CITY           SKY/WX    TMP DP  RH WIND       PRES   REMARKS
TOPEKA         PTCLDY    72  61  68 SE14G25   29.78F
MANHATTAN      MOCLDY    72  64  76 S20G39    29.71S
EMPORIA        CLOUDY    71  62  73 SE21G31   29.77F
CHANUTE        CLOUDY    72  59  63 SE16      29.82F
WICHITA        CLOUDY    71  65  81 S22G32    29.71S
OMAHA          CLOUDY    70  59  68 SE18      29.76S
LINCOLN        LGT RAIN  66  62  87 SE16G25   29.70F
FALLS CITY     MOCLDY    68  60  75 SE16G25   29.76F
LAMONI         MOCLDY    70  59  68 S10       29.89S
DES MOINES     MOCLDY    72  58  61 S14       29.88S

$$



USA.gov is the U.S. government's official web portal to all federal, state and local government web resources and services.